#timestamp,LO_Frequency,Hit 
1501988415.7,286047038.1,N
1501988435.6,286047044.4,N
1501988455.4,286047043.2,N
1501988475.2,286047044.2,N
1501988495.0,286047042.6,N
1501988495.9,286047042.6,N
1501988515.8,286047041.9,N
1501988535.6,286047042.4,N
1501988555.4,286047042.0,N
1501988575.3,286047043.7,N
1501988595.1,286047041.7,N
1501988615.8,286047042.0,N
1501988635.7,286047041.8,N
1501988655.5,286047040.3,N
1501988675.3,286047042.7,N
1501988695.5,286047041.5,N
1501988715.3,286047044.3,N
1501988735.2,286047043.7,N
1501988755.9,286047043.7,N
1501988775.7,286047044.4,N
1501988795.6,286047042.9,N
1501988815.4,286047044.4,N
1501988835.2,286047041.5,N
1501988855.0,286047046.0,N
1501988855.9,286047046.0,N
1501988875.8,286047041.3,N
1501988895.6,286047043.9,N
1501988915.4,286047043.4,N
1501988935.3,286047043.8,N
1501988955.1,286047041.3,N
1501988975.8,286047041.3,N
1501988995.7,286047043.2,N
1501989015.5,286047043.4,N
1501989035.3,286047042.9,N
1501989055.2,286047044.1,N
1501989075.9,286047043.9,N
1501989095.7,286047044.4,N
1501989115.5,286047044.2,N
1501989135.4,286047044.1,N
1501989155.2,286047043.2,N
1501989175.0,286047043.5,N
1501989175.9,286047043.5,N
1501989195.8,286047046.0,N
1501989215.6,286047043.6,N
1501989235.4,286047043.4,N
1501989255.3,286047043.4,N
1501989275.1,286047045.7,N
1501989276.0,286047045.7,N
1501989295.8,286047045.2,N
1501989315.7,286047044.1,N
1501989335.5,286047044.5,N
1501989355.3,286047044.7,N
1501989375.2,286047045.0,N
1501989395.9,286047045.8,N
1501989415.7,286047045.2,N
1501989435.5,286047045.2,N
1501989455.4,286047045.4,N
1501989475.2,286047045.1,N
1501989495.0,286047045.4,N
1501989495.9,286047045.4,N
1501989515.8,286047043.3,N
1501989535.6,286047045.0,N
1501989555.4,286047044.8,N
1501989575.3,286047046.5,N
1501989595.1,286047049.2,N
1501989596.0,286047049.2,N
1501989615.8,286047047.2,N
1501989635.7,286047049.2,N
1501989655.5,286047045.2,N
1501989675.3,286047044.8,N
1501989695.1,286047045.2,N
1501989715.9,286047044.7,N
1501989735.7,286047047.2,N
1501989755.5,286047047.0,N
1501989775.4,286047048.6,N
1501989795.2,286047048.4,N
1501989815.0,286047048.6,N
1501989815.9,286047048.6,N
1501989835.8,286047050.1,N
1501989855.6,286047052.0,N
1501989875.4,286047052.4,N
1501989895.3,286047051.3,N
1501989915.1,286047051.6,N
1501989916.0,286047051.6,N
1501989935.8,286047051.1,N
1501989955.6,286047051.6,N
1501989975.5,286047052.1,N
1501989995.3,286047051.5,N
1501990015.1,286047051.0,N
1501990035.9,286047053.7,N
1501990055.7,286047055.2,N
1501990075.5,286047053.3,N
1501990095.4,286047053.5,N
1501990115.2,286047053.4,N
1501990135.0,286047053.7,N
1501990135.9,286047053.7,N
1501990155.8,286047051.0,N
1501990175.6,286047053.5,N
1501990195.4,286047051.2,N
1501990215.3,286047051.1,N
1501990235.1,286047052.1,N
1501990255.3,286047051.7,N
1501990275.2,286047051.4,N
1501990295.0,286047053.4,N
1501990295.9,286047053.4,N
1501990315.7,286047051.4,N
1501990335.6,286047051.2,N
1501990355.4,286047051.4,N
1501990375.2,286047051.6,N
1501990395.1,286047051.8,N
1501990396.0,286047051.8,N
1501990415.8,286047051.8,N
1501990435.6,286047053.6,N
1501990455.5,286047051.0,N
1501990475.3,286047050.9,N
1501990495.1,286047053.7,N
1501990515.9,286047053.2,N
1501990535.7,286047053.6,N
1501990555.5,286047051.4,N
1501990575.3,286047051.2,N
1501990595.1,286047051.2,N
1501990596.0,286047051.2,N
1501990615.8,286047052.1,N
1501990635.6,286047051.3,N
1501990655.5,286047050.9,N
1501990675.3,286047054.7,N
1501990695.1,286047055.1,N
1501990715.9,286047055.2,N
1501990735.7,286047053.3,N
1501990755.5,286047052.8,N
1501990775.4,286047053.2,N
1501990795.2,286047053.2,N
1501990815.0,286047054.8,N
1501990815.9,286047054.8,N
1501990835.8,286047054.3,N
1501990855.6,286047054.5,N
1501990875.4,286047056.9,N
1501990895.2,286047056.2,N
1501990915.1,286047055.7,N
1501990916.0,286047055.7,N
1501990935.8,286047057.4,N
1501990955.6,286047058.1,N
1501990975.5,286047058.2,N
1501990995.3,286047059.7,N
1501991015.1,286047059.9,N
1501991035.9,286047058.1,N
1501991055.7,286047058.7,N
1501991075.5,286047058.2,N
1501991095.4,286047058.5,N
1501991115.2,286047058.7,N
1501991135.0,286047056.2,N
1501991135.9,286047056.2,N
1501991155.8,286047055.9,N
1501991175.6,286047056.5,N
1501991195.4,286047055.7,N
1501991215.2,286047056.4,N
1501991235.1,286047056.6,N
1501991236.0,286047056.6,N
1501991255.8,286047056.3,N
1501991275.6,286047056.3,N
1501991295.5,286047056.3,N
1501991315.3,286047056.1,N
1501991335.1,286047056.1,N
1501991355.9,286047058.7,N
1501991375.7,286047055.7,N
1501991395.5,286047055.8,N
1501991415.4,286047060.3,N
1501991435.2,286047059.5,N
1501991455.8,286047059.7,N
1501991475.6,286047060.0,N
1501991495.4,286047059.7,N
1501991515.3,286047060.4,N
1501991535.1,286047057.8,N
1501991555.8,286047060.0,N
1501991575.7,286047060.2,N
1501991595.5,286047061.6,N
1501991615.3,286047061.9,N
1501991635.2,286047058.9,N
1501991655.9,286047059.7,N
1501991675.7,286047059.5,N
1501991695.6,286047059.6,N
1501991715.4,286047057.3,N
1501991735.2,286047060.4,N
1501991755.0,286047059.7,N
1501991755.9,286047059.7,N
1501991775.8,286047059.7,N
1501991795.6,286047059.5,N
1501991815.4,286047059.0,N
1501991835.3,286047063.1,N
1501991855.1,286047060.9,N
1501991875.8,286047062.0,N
1501991895.7,286047059.6,N
1501991915.5,286047061.7,N
1501991935.3,286047061.8,N
1501991955.2,286047061.9,N
1501991975.9,286047059.8,N
1501991995.7,286047059.5,N
